#datetime,building,power
2021-12-27T00:00:00,mfh,12.93
2021-12-27T00:01:00,mfh,12.89
2021-12-27T00:02:00,mfh,12.89
2021-12-27T00:03:00,mfh,12.20
2021-12-27T00:04:00,mfh,12.39
2021-12-27T00:05:00,mfh,12.38
2021-12-27T00:06:00,mfh,15.88
2021-12-27T00:07:00,mfh,16.52
2021-12-27T00:08:00,mfh,16.52
2021-12-27T00:09:00,mfh,16.59
2021-12-27T00:10:00,mfh,16.98
2021-12-27T00:11:00,mfh,16.57
2021-12-27T00:12:00,mfh,14.21
2021-12-27T00:13:00,mfh,14.21
2021-12-27T00:14:00,mfh,14.30
2021-12-27T00:15:00,mfh,15.03
2021-12-27T00:16:00,mfh,15.04
2021-12-27T00:17:00,mfh,14.92
2021-12-27T00:18:00,mfh,15.08
2021-12-27T00:19:00,mfh,15.81
2021-12-27T00:20:00,mfh,14.46
2021-12-27T00:21:00,mfh,14.46
2021-12-27T00:22:00,mfh,14.29
2021-12-27T00:23:00,mfh,15.13
2021-12-27T00:24:00,mfh,15.12
2021-12-27T00:25:00,mfh,15.17
2021-12-27T00:26:00,mfh,15.09
2021-12-27T00:27:00,mfh,15.03
2021-12-27T00:28:00,mfh,12.24
2021-12-27T00:29:00,mfh,12.16
2021-12-27T00:30:00,mfh,12.16
2021-12-27T00:31:00,mfh,12.88
2021-12-27T00:32:00,mfh,12.90
2021-12-27T00:33:00,mfh,12.91
2021-12-27T00:34:00,mfh,12.88
2021-12-27T00:35:00,mfh,12.89
2021-12-27T00:36:00,mfh,12.09
2021-12-27T00:37:00,mfh,12.30
2021-12-27T00:38:00,mfh,12.31
2021-12-27T00:39:00,mfh,12.74
2021-12-27T00:40:00,mfh,12.80
2021-12-27T00:41:00,mfh,12.72
2021-12-27T00:42:00,mfh,12.64
2021-12-27T00:43:00,mfh,12.97
2021-12-27T00:44:00,mfh,12.54
2021-12-27T00:45:00,mfh,12.17
2021-12-27T00:46:00,mfh,12.36
2021-12-27T00:47:00,mfh,13.99
2021-12-27T00:48:00,mfh,13.79
2021-12-27T00:49:00,mfh,13.69
2021-12-27T00:50:00,mfh,13.72
2021-12-27T00:51:00,mfh,13.15
2021-12-27T00:52:00,mfh,12.49
2021-12-27T00:53:00,mfh,12.47
2021-12-27T00:54:00,mfh,12.56
2021-12-27T00:55:00,mfh,12.58
2021-12-27T00:56:00,mfh,12.84
2021-12-27T00:57:00,mfh,12.80
2021-12-27T00:58:00,mfh,12.73
2021-12-27T00:59:00,mfh,12.73
2021-12-27T01:00:00,mfh,11.99
2021-12-27T01:01:00,mfh,12.00
2021-12-27T01:02:00,mfh,11.99
2021-12-27T01:03:00,mfh,12.00
2021-12-27T01:04:00,mfh,12.78
2021-12-27T01:05:00,mfh,13.44
2021-12-27T01:06:00,mfh,12.81
2021-12-27T01:07:00,mfh,12.82
2021-12-27T01:08:00,mfh,12.93
2021-12-27T01:09:00,mfh,12.23
2021-12-27T01:10:00,mfh,12.30
2021-12-27T01:11:00,mfh,12.29
2021-12-27T01:12:00,mfh,12.21
2021-12-27T01:13:00,mfh,13.09
2021-12-27T01:14:00,mfh,12.88
2021-12-27T01:15:00,mfh,12.86
2021-12-27T01:16:00,mfh,12.78
2021-12-27T01:17:00,mfh,12.18
2021-12-27T01:18:00,mfh,12.57
2021-12-27T01:19:00,mfh,12.26
2021-12-27T01:20:00,mfh,12.50
2021-12-27T01:21:00,mfh,15.05
2021-12-27T01:22:00,mfh,15.14
2021-12-27T01:23:00,mfh,15.19
2021-12-27T01:24:00,mfh,15.19
2021-12-27T01:25:00,mfh,14.47
2021-12-27T01:26:00,mfh,14.10
2021-12-27T01:27:00,mfh,14.92
2021-12-27T01:28:00,mfh,14.05
2021-12-27T01:29:00,mfh,15.14
2021-12-27T01:30:00,mfh,14.75
2021-12-27T01:31:00,mfh,14.79
2021-12-27T01:32:00,mfh,14.77
2021-12-27T01:33:00,mfh,14.82
2021-12-27T01:34:00,mfh,14.16
2021-12-27T01:35:00,mfh,14.33
2021-12-27T01:36:00,mfh,15.39
2021-12-27T01:37:00,mfh,14.91
2021-12-27T01:38:00,mfh,15.02
2021-12-27T01:39:00,mfh,15.02
2021-12-27T01:40:00,mfh,16.12
2021-12-27T01:41:00,mfh,14.86
2021-12-27T01:42:00,mfh,15.07
2021-12-27T01:43:00,mfh,12.34
2021-12-27T01:44:00,mfh,12.33
2021-12-27T01:45:00,mfh,12.33
2021-12-27T01:46:00,mfh,12.94
2021-12-27T01:47:00,mfh,12.98
2021-12-27T01:48:00,mfh,12.96
2021-12-27T01:49:00,mfh,13.35
2021-12-27T01:50:00,mfh,13.30
2021-12-27T01:51:00,mfh,12.71
2021-12-27T01:52:00,mfh,12.74
2021-12-27T01:53:00,mfh,12.75
2021-12-27T01:54:00,mfh,13.25
2021-12-27T01:55:00,mfh,13.29
2021-12-27T01:56:00,mfh,13.25
2021-12-27T01:57:00,mfh,13.14
2021-12-27T01:58:00,mfh,12.93
2021-12-27T01:59:00,mfh,12.23
2021-12-27T02:00:00,mfh,12.25
2021-12-27T02:01:00,mfh,12.48
2021-12-27T02:02:00,mfh,12.36
2021-12-27T02:03:00,mfh,13.12
2021-12-27T02:04:00,mfh,12.95
2021-12-27T02:05:00,mfh,12.95
2021-12-27T02:06:00,mfh,14.11
2021-12-27T02:07:00,mfh,13.06
2021-12-27T02:08:00,mfh,12.71
2021-12-27T02:09:00,mfh,12.26
2021-12-27T02:10:00,mfh,12.25
2021-12-27T02:11:00,mfh,12.80
2021-12-27T02:12:00,mfh,12.74
2021-12-27T02:13:00,mfh,12.81
2021-12-27T02:14:00,mfh,12.83
2021-12-27T02:15:00,mfh,12.89
2021-12-27T02:16:00,mfh,12.16
2021-12-27T02:17:00,mfh,12.12
2021-12-27T02:18:00,mfh,12.39
2021-12-27T02:19:00,mfh,12.88
2021-12-27T02:20:00,mfh,12.90
2021-12-27T02:21:00,mfh,13.01
2021-12-27T02:22:00,mfh,13.03
2021-12-27T02:23:00,mfh,12.40
2021-12-27T02:24:00,mfh,12.46
2021-12-27T02:25:00,mfh,12.30
2021-12-27T02:26:00,mfh,12.29
2021-12-27T02:27:00,mfh,12.91
2021-12-27T02:28:00,mfh,13.18
2021-12-27T02:29:00,mfh,13.23
2021-12-27T02:30:00,mfh,12.75
2021-12-27T02:31:00,mfh,12.82
2021-12-27T02:32:00,mfh,12.10
2021-12-27T02:33:00,mfh,14.11
2021-12-27T02:34:00,mfh,14.09
2021-12-27T02:35:00,mfh,14.72
2021-12-27T02:36:00,mfh,14.67
2021-12-27T02:37:00,mfh,14.79
2021-12-27T02:38:00,mfh,14.85
2021-12-27T02:39:00,mfh,15.86
2021-12-27T02:40:00,mfh,14.28
2021-12-27T02:41:00,mfh,14.16
2021-12-27T02:42:00,mfh,14.14
2021-12-27T02:43:00,mfh,14.08
2021-12-27T02:44:00,mfh,14.76
2021-12-27T02:45:00,mfh,15.21
2021-12-27T02:46:00,mfh,14.83
2021-12-27T02:47:00,mfh,14.82
2021-12-27T02:48:00,mfh,14.78
2021-12-27T02:49:00,mfh,14.68
2021-12-27T02:50:00,mfh,14.20
2021-12-27T02:51:00,mfh,14.18
2021-12-27T02:52:00,mfh,14.97
2021-12-27T02:53:00,mfh,15.08
2021-12-27T02:54:00,mfh,15.18
2021-12-27T02:55:00,mfh,15.09
2021-12-27T02:56:00,mfh,13.09
2021-12-27T02:57:00,mfh,12.37
2021-12-27T02:58:00,mfh,12.35
2021-12-27T02:59:00,mfh,12.24
2021-12-27T03:00:00,mfh,12.86
2021-12-27T03:01:00,mfh,13.85
2021-12-27T03:02:00,mfh,13.61
2021-12-27T03:03:00,mfh,13.61
2021-12-27T03:04:00,mfh,13.71
2021-12-27T03:05:00,mfh,12.94
2021-12-27T03:06:00,mfh,12.27
2021-12-27T03:07:00,mfh,12.43
2021-12-27T03:08:00,mfh,12.23
2021-12-27T03:09:00,mfh,12.86
2021-12-27T03:10:00,mfh,12.74
2021-12-27T03:11:00,mfh,12.78
2021-12-27T03:12:00,mfh,12.68
2021-12-27T03:13:00,mfh,12.86
2021-12-27T03:14:00,mfh,12.12
2021-12-27T03:15:00,mfh,12.33
2021-12-27T03:16:00,mfh,12.12
2021-12-27T03:17:00,mfh,13.17
2021-12-27T03:18:00,mfh,13.46
2021-12-27T03:19:00,mfh,12.90
2021-12-27T03:20:00,mfh,12.85
2021-12-27T03:21:00,mfh,12.84
2021-12-27T03:22:00,mfh,12.17
2021-12-27T03:23:00,mfh,12.16
2021-12-27T03:24:00,mfh,12.30
2021-12-27T03:25:00,mfh,12.14
2021-12-27T03:26:00,mfh,13.21
2021-12-27T03:27:00,mfh,12.93
2021-12-27T03:28:00,mfh,12.96
2021-12-27T03:29:00,mfh,13.00
2021-12-27T03:30:00,mfh,12.39
2021-12-27T03:31:00,mfh,12.42
2021-12-27T03:32:00,mfh,12.33
2021-12-27T03:33:00,mfh,12.48
2021-12-27T03:34:00,mfh,12.75
2021-12-27T03:35:00,mfh,12.82
2021-12-27T03:36:00,mfh,12.87
2021-12-27T03:37:00,mfh,12.80
2021-12-27T03:38:00,mfh,12.17
2021-12-27T03:39:00,mfh,12.06
2021-12-27T03:40:00,mfh,12.21
2021-12-27T03:41:00,mfh,12.28
2021-12-27T03:42:00,mfh,13.51
2021-12-27T03:43:00,mfh,15.00
2021-12-27T03:44:00,mfh,14.93
2021-12-27T03:45:00,mfh,15.03
2021-12-27T03:46:00,mfh,14.23
2021-12-27T03:47:00,mfh,14.26
2021-12-27T03:48:00,mfh,14.26
2021-12-27T03:49:00,mfh,14.44
2021-12-27T03:50:00,mfh,15.45
2021-12-27T03:51:00,mfh,15.30
2021-12-27T03:52:00,mfh,15.19
2021-12-27T03:53:00,mfh,15.02
2021-12-27T03:54:00,mfh,14.81
2021-12-27T03:55:00,mfh,14.28
2021-12-27T03:56:00,mfh,14.35
2021-12-27T03:57:00,mfh,14.37
2021-12-27T03:58:00,mfh,15.06
2021-12-27T03:59:00,mfh,14.89
2021-12-27T04:00:00,mfh,14.91
2021-12-27T04:01:00,mfh,14.89
2021-12-27T04:02:00,mfh,14.94
2021-12-27T04:03:00,mfh,14.96
2021-12-27T04:04:00,mfh,14.31
2021-12-27T04:05:00,mfh,14.30
2021-12-27T04:06:00,mfh,12.17
2021-12-27T04:07:00,mfh,12.91
2021-12-27T04:08:00,mfh,12.79
2021-12-27T04:09:00,mfh,12.88
2021-12-27T04:10:00,mfh,12.84
2021-12-27T04:11:00,mfh,12.20
2021-12-27T04:12:00,mfh,12.25
2021-12-27T04:13:00,mfh,12.23
2021-12-27T04:14:00,mfh,12.20
2021-12-27T04:15:00,mfh,12.80
2021-12-27T04:16:00,mfh,12.91
2021-12-27T04:17:00,mfh,13.00
2021-12-27T04:18:00,mfh,12.95
2021-12-27T04:19:00,mfh,13.23
2021-12-27T04:20:00,mfh,12.52
2021-12-27T04:21:00,mfh,13.09
2021-12-27T04:22:00,mfh,12.58
2021-12-27T04:23:00,mfh,13.20
2021-12-27T04:24:00,mfh,12.91
2021-12-27T04:25:00,mfh,12.85
2021-12-27T04:26:00,mfh,12.97
2021-12-27T04:27:00,mfh,13.38
2021-12-27T04:28:00,mfh,12.47
2021-12-27T04:29:00,mfh,12.36
2021-12-27T04:30:00,mfh,12.38
2021-12-27T04:31:00,mfh,13.08
2021-12-27T04:32:00,mfh,14.06
2021-12-27T04:33:00,mfh,13.07
2021-12-27T04:34:00,mfh,13.03
2021-12-27T04:35:00,mfh,12.95
2021-12-27T04:36:00,mfh,12.88
2021-12-27T04:37:00,mfh,12.06
2021-12-27T04:38:00,mfh,12.15
2021-12-27T04:39:00,mfh,12.07
2021-12-27T04:40:00,mfh,12.63
2021-12-27T04:41:00,mfh,12.65
2021-12-27T04:42:00,mfh,12.65
2021-12-27T04:43:00,mfh,12.72
2021-12-27T04:44:00,mfh,12.68
2021-12-27T04:45:00,mfh,12.08
2021-12-27T04:46:00,mfh,12.09
2021-12-27T04:47:00,mfh,12.17
2021-12-27T04:48:00,mfh,13.16
2021-12-27T04:49:00,mfh,12.99
2021-12-27T04:50:00,mfh,13.03
2021-12-27T04:51:00,mfh,13.04
2021-12-27T04:52:00,mfh,12.97
2021-12-27T04:53:00,mfh,14.27
2021-12-27T04:54:00,mfh,14.25
2021-12-27T04:55:00,mfh,14.15
2021-12-27T04:56:00,mfh,14.08
2021-12-27T04:57:00,mfh,14.86
2021-12-27T04:58:00,mfh,14.85
2021-12-27T04:59:00,mfh,15.43
2021-12-27T05:00:00,mfh,15.15
2021-12-27T05:01:00,mfh,34.81
2021-12-27T05:02:00,mfh,34.25
2021-12-27T05:03:00,mfh,34.42
2021-12-27T05:04:00,mfh,34.63
2021-12-27T05:05:00,mfh,34.91
2021-12-27T05:06:00,mfh,34.70
2021-12-27T05:07:00,mfh,34.20
2021-12-27T05:08:00,mfh,33.48
2021-12-27T05:09:00,mfh,33.42
2021-12-27T05:10:00,mfh,33.47
2021-12-27T05:11:00,mfh,33.80
2021-12-27T05:12:00,mfh,33.89
2021-12-27T05:13:00,mfh,34.11
2021-12-27T05:14:00,mfh,34.62
2021-12-27T05:15:00,mfh,35.20
2021-12-27T05:16:00,mfh,34.57
2021-12-27T05:17:00,mfh,34.05
2021-12-27T05:18:00,mfh,33.52
2021-12-27T05:19:00,mfh,32.89
2021-12-27T05:20:00,mfh,32.89
2021-12-27T05:21:00,mfh,32.07
2021-12-27T05:22:00,mfh,32.63
2021-12-27T05:23:00,mfh,33.19
2021-12-27T05:24:00,mfh,33.32
2021-12-27T05:25:00,mfh,32.76
2021-12-27T05:26:00,mfh,32.76
2021-12-27T05:27:00,mfh,31.99
2021-12-27T05:28:00,mfh,31.96
2021-12-27T05:29:00,mfh,32.04
2021-12-27T05:30:00,mfh,32.67
2021-12-27T05:31:00,mfh,32.57
2021-12-27T05:32:00,mfh,32.75
2021-12-27T05:33:00,mfh,32.69
2021-12-27T05:34:00,mfh,33.36
2021-12-27T05:35:00,mfh,31.91
2021-12-27T05:36:00,mfh,31.94
2021-12-27T05:37:00,mfh,31.73
2021-12-27T05:38:00,mfh,31.58
2021-12-27T05:39:00,mfh,32.27
2021-12-27T05:40:00,mfh,32.40
2021-12-27T05:41:00,mfh,32.44
2021-12-27T05:42:00,mfh,32.27
2021-12-27T05:43:00,mfh,32.33
2021-12-27T05:44:00,mfh,31.85
2021-12-27T05:45:00,mfh,31.98
2021-12-27T05:46:00,mfh,31.82
2021-12-27T05:47:00,mfh,32.48
2021-12-27T05:48:00,mfh,32.42
2021-12-27T05:49:00,mfh,32.44
2021-12-27T05:50:00,mfh,32.61
2021-12-27T05:51:00,mfh,32.71
2021-12-27T05:52:00,mfh,31.62
2021-12-27T05:53:00,mfh,31.68
2021-12-27T05:54:00,mfh,31.58
2021-12-27T05:55:00,mfh,32.20
2021-12-27T05:56:00,mfh,32.52
2021-12-27T05:57:00,mfh,32.42
2021-12-27T05:58:00,mfh,32.44
2021-12-27T05:59:00,mfh,32.55
2021-12-27T06:00:00,mfh,32.55
2021-12-27T06:01:00,mfh,31.82
2021-12-27T06:02:00,mfh,31.61
2021-12-27T06:03:00,mfh,31.87
2021-12-27T06:04:00,mfh,32.37
2021-12-27T06:05:00,mfh,32.43
2021-12-27T06:06:00,mfh,32.30
2021-12-27T06:07:00,mfh,34.47
2021-12-27T06:08:00,mfh,34.41
2021-12-27T06:09:00,mfh,33.80
2021-12-27T06:10:00,mfh,34.16
2021-12-27T06:11:00,mfh,34.20
2021-12-27T06:12:00,mfh,34.00
2021-12-27T06:13:00,mfh,34.41
2021-12-27T06:14:00,mfh,34.55
2021-12-27T06:15:00,mfh,34.45
2021-12-27T06:16:00,mfh,34.50
2021-12-27T06:17:00,mfh,33.84
2021-12-27T06:18:00,mfh,33.80
2021-12-27T06:19:00,mfh,33.65
2021-12-27T06:20:00,mfh,33.60
2021-12-27T06:21:00,mfh,34.32
2021-12-27T06:22:00,mfh,34.57
2021-12-27T06:23:00,mfh,34.38
2021-12-27T06:24:00,mfh,34.42
2021-12-27T06:25:00,mfh,33.71
2021-12-27T06:26:00,mfh,33.80
2021-12-27T06:27:00,mfh,34.21
2021-12-27T06:28:00,mfh,33.88
2021-12-27T06:29:00,mfh,33.78
2021-12-27T06:30:00,mfh,34.55
2021-12-27T06:31:00,mfh,32.41
2021-12-27T06:32:00,mfh,33.13
2021-12-27T06:33:00,mfh,32.59
2021-12-27T06:34:00,mfh,31.71
2021-12-27T06:35:00,mfh,31.82
2021-12-27T06:36:00,mfh,32.09
2021-12-27T06:37:00,mfh,31.72
2021-12-27T06:38:00,mfh,32.02
2021-12-27T06:39:00,mfh,32.12
2021-12-27T06:40:00,mfh,32.99
2021-12-27T06:41:00,mfh,32.20
2021-12-27T06:42:00,mfh,31.67
2021-12-27T06:43:00,mfh,31.58
2021-12-27T06:44:00,mfh,31.82
2021-12-27T06:45:00,mfh,31.66
2021-12-27T06:46:00,mfh,32.29
2021-12-27T06:47:00,mfh,32.52
2021-12-27T06:48:00,mfh,32.54
2021-12-27T06:49:00,mfh,32.24
2021-12-27T06:50:00,mfh,32.45
2021-12-27T06:51:00,mfh,31.85
2021-12-27T06:52:00,mfh,32.49
2021-12-27T06:53:00,mfh,31.73
2021-12-27T06:54:00,mfh,31.85
2021-12-27T06:55:00,mfh,33.37
2021-12-27T06:56:00,mfh,32.47
2021-12-27T06:57:00,mfh,32.40
2021-12-27T06:58:00,mfh,32.63
2021-12-27T06:59:00,mfh,32.28
2021-12-27T07:00:00,mfh,31.78
2021-12-27T07:01:00,mfh,32.31
2021-12-27T07:02:00,mfh,31.76
2021-12-27T07:03:00,mfh,32.44
2021-12-27T07:04:00,mfh,32.40
2021-12-27T07:05:00,mfh,32.32
2021-12-27T07:06:00,mfh,32.46
2021-12-27T07:07:00,mfh,32.59
2021-12-27T07:08:00,mfh,32.03
2021-12-27T07:09:00,mfh,32.00
2021-12-27T07:10:00,mfh,31.91
2021-12-27T07:11:00,mfh,33.24
2021-12-27T07:12:00,mfh,34.37
2021-12-27T07:13:00,mfh,32.02
2021-12-27T07:14:00,mfh,32.01
2021-12-27T07:15:00,mfh,32.39
2021-12-27T07:16:00,mfh,32.75
2021-12-27T07:17:00,mfh,32.87
2021-12-27T07:18:00,mfh,33.49
2021-12-27T07:19:00,mfh,32.54
2021-12-27T07:20:00,mfh,32.48
2021-12-27T07:21:00,mfh,33.22
2021-12-27T07:22:00,mfh,33.30
2021-12-27T07:23:00,mfh,33.26
2021-12-27T07:24:00,mfh,33.83
2021-12-27T07:25:00,mfh,34.04
2021-12-27T07:26:00,mfh,33.97
2021-12-27T07:27:00,mfh,33.90
2021-12-27T07:28:00,mfh,33.82
2021-12-27T07:29:00,mfh,33.85
2021-12-27T07:30:00,mfh,33.09
2021-12-27T07:31:00,mfh,33.12
2021-12-27T07:32:00,mfh,33.50
2021-12-27T07:33:00,mfh,34.30
2021-12-27T07:34:00,mfh,34.66
2021-12-27T07:35:00,mfh,34.67
2021-12-27T07:36:00,mfh,34.76
2021-12-27T07:37:00,mfh,35.19
2021-12-27T07:38:00,mfh,33.18
2021-12-27T07:39:00,mfh,33.19
2021-12-27T07:40:00,mfh,33.15
2021-12-27T07:41:00,mfh,33.93
2021-12-27T07:42:00,mfh,34.04
2021-12-27T07:43:00,mfh,34.33
2021-12-27T07:44:00,mfh,34.18
2021-12-27T07:45:00,mfh,32.35
2021-12-27T07:46:00,mfh,31.39
2021-12-27T07:47:00,mfh,31.34
2021-12-27T07:48:00,mfh,31.41
2021-12-27T07:49:00,mfh,31.22
2021-12-27T07:50:00,mfh,32.06
2021-12-27T07:51:00,mfh,32.23
2021-12-27T07:52:00,mfh,32.11
2021-12-27T07:53:00,mfh,32.16
2021-12-27T07:54:00,mfh,32.06
2021-12-27T07:55:00,mfh,31.08
2021-12-27T07:56:00,mfh,31.24
2021-12-27T07:57:00,mfh,31.21
2021-12-27T07:58:00,mfh,31.81
2021-12-27T07:59:00,mfh,31.85
2021-12-27T08:00:00,mfh,32.81
2021-12-27T08:01:00,mfh,31.76
2021-12-27T08:02:00,mfh,31.95
2021-12-27T08:03:00,mfh,31.68
2021-12-27T08:04:00,mfh,31.38
2021-12-27T08:05:00,mfh,31.16
2021-12-27T08:06:00,mfh,31.06
2021-12-27T08:07:00,mfh,31.75
2021-12-27T08:08:00,mfh,31.87
2021-12-27T08:09:00,mfh,31.79
2021-12-27T08:10:00,mfh,31.73
2021-12-27T08:11:00,mfh,31.21
2021-12-27T08:12:00,mfh,31.49
2021-12-27T08:13:00,mfh,31.10
2021-12-27T08:14:00,mfh,31.69
2021-12-27T08:15:00,mfh,31.72
2021-12-27T08:16:00,mfh,31.96
2021-12-27T08:17:00,mfh,32.42
2021-12-27T08:18:00,mfh,31.90
2021-12-27T08:19:00,mfh,31.26
2021-12-27T08:20:00,mfh,31.23
2021-12-27T08:21:00,mfh,31.18
2021-12-27T08:22:00,mfh,31.22
2021-12-27T08:23:00,mfh,31.74
2021-12-27T08:24:00,mfh,31.91
2021-12-27T08:25:00,mfh,32.04
2021-12-27T08:26:00,mfh,32.41
2021-12-27T08:27:00,mfh,31.29
2021-12-27T08:28:00,mfh,31.15
2021-12-27T08:29:00,mfh,31.01
2021-12-27T08:30:00,mfh,31.14
2021-12-27T08:31:00,mfh,31.65
2021-12-27T08:32:00,mfh,31.66
2021-12-27T08:33:00,mfh,31.91
2021-12-27T08:34:00,mfh,32.05
2021-12-27T08:35:00,mfh,33.99
2021-12-27T08:36:00,mfh,33.24
2021-12-27T08:37:00,mfh,33.02
2021-12-27T08:38:00,mfh,33.06
2021-12-27T08:39:00,mfh,34.10
2021-12-27T08:40:00,mfh,33.94
2021-12-27T08:41:00,mfh,33.83
2021-12-27T08:42:00,mfh,33.82
2021-12-27T08:43:00,mfh,33.82
2021-12-27T08:44:00,mfh,33.28
2021-12-27T08:45:00,mfh,33.08
2021-12-27T08:46:00,mfh,33.16
2021-12-27T08:47:00,mfh,33.29
2021-12-27T08:48:00,mfh,33.98
2021-12-27T08:49:00,mfh,33.83
2021-12-27T08:50:00,mfh,33.88
2021-12-27T08:51:00,mfh,33.67
2021-12-27T08:52:00,mfh,33.04
2021-12-27T08:53:00,mfh,32.93
2021-12-27T08:54:00,mfh,32.97
2021-12-27T08:55:00,mfh,32.95
2021-12-27T08:56:00,mfh,33.46
2021-12-27T08:57:00,mfh,34.12
2021-12-27T08:58:00,mfh,33.90
2021-12-27T08:59:00,mfh,32.01
2021-12-27T09:00:00,mfh,31.25
2021-12-27T09:01:00,mfh,31.39
2021-12-27T09:02:00,mfh,31.14
2021-12-27T09:03:00,mfh,31.03
2021-12-27T09:04:00,mfh,31.76
2021-12-27T09:05:00,mfh,31.63
2021-12-27T09:06:00,mfh,31.47
2021-12-27T09:07:00,mfh,31.67
2021-12-27T09:08:00,mfh,31.75
2021-12-27T09:09:00,mfh,30.98
2021-12-27T09:10:00,mfh,31.03
2021-12-27T09:11:00,mfh,31.15
2021-12-27T09:12:00,mfh,32.01
2021-12-27T09:13:00,mfh,31.55
2021-12-27T09:14:00,mfh,31.61
2021-12-27T09:15:00,mfh,31.75
2021-12-27T09:16:00,mfh,32.01
2021-12-27T09:17:00,mfh,31.07
2021-12-27T09:18:00,mfh,31.52
2021-12-27T09:19:00,mfh,30.94
2021-12-27T09:20:00,mfh,30.94
2021-12-27T09:21:00,mfh,31.55
2021-12-27T09:22:00,mfh,31.53
2021-12-27T09:23:00,mfh,31.52
2021-12-27T09:24:00,mfh,31.66
2021-12-27T09:25:00,mfh,31.75
2021-12-27T09:26:00,mfh,30.89
2021-12-27T09:27:00,mfh,30.86
2021-12-27T09:28:00,mfh,30.86
2021-12-27T09:29:00,mfh,31.81
2021-12-27T09:30:00,mfh,31.67
2021-12-27T09:31:00,mfh,31.64
2021-12-27T09:32:00,mfh,31.64
2021-12-27T09:33:00,mfh,31.64
2021-12-27T09:34:00,mfh,31.17
2021-12-27T09:35:00,mfh,30.98
2021-12-27T09:36:00,mfh,31.24
2021-12-27T09:37:00,mfh,31.17
2021-12-27T09:38:00,mfh,32.45
2021-12-27T09:39:00,mfh,31.81
2021-12-27T09:40:00,mfh,31.81
2021-12-27T09:41:00,mfh,31.70
2021-12-27T09:42:00,mfh,31.04
2021-12-27T09:43:00,mfh,31.14
2021-12-27T09:44:00,mfh,31.93
2021-12-27T09:45:00,mfh,31.16
2021-12-27T09:46:00,mfh,31.75
2021-12-27T09:47:00,mfh,31.77
2021-12-27T09:48:00,mfh,33.73
2021-12-27T09:49:00,mfh,33.75
2021-12-27T09:50:00,mfh,33.17
2021-12-27T09:51:00,mfh,33.34
2021-12-27T09:52:00,mfh,33.21
2021-12-27T09:53:00,mfh,33.14
2021-12-27T09:54:00,mfh,33.46
2021-12-27T09:55:00,mfh,33.61
2021-12-27T09:56:00,mfh,34.90
2021-12-27T09:57:00,mfh,34.88
2021-12-27T09:58:00,mfh,34.41
2021-12-27T09:59:00,mfh,34.38
2021-12-27T10:00:00,mfh,33.70
2021-12-27T10:01:00,mfh,33.71
2021-12-27T10:02:00,mfh,34.16
2021-12-27T10:03:00,mfh,35.61
2021-12-27T10:04:00,mfh,35.19
2021-12-27T10:05:00,mfh,34.73
2021-12-27T10:06:00,mfh,34.13
2021-12-27T10:07:00,mfh,34.07
2021-12-27T10:08:00,mfh,33.72
2021-12-27T10:09:00,mfh,34.37
2021-12-27T10:10:00,mfh,34.77
2021-12-27T10:11:00,mfh,32.44
2021-12-27T10:12:00,mfh,32.32
2021-12-27T10:13:00,mfh,32.58
2021-12-27T10:14:00,mfh,32.50
2021-12-27T10:15:00,mfh,31.60
2021-12-27T10:16:00,mfh,31.79
2021-12-27T10:17:00,mfh,31.88
2021-12-27T10:18:00,mfh,32.71
2021-12-27T10:19:00,mfh,33.50
2021-12-27T10:20:00,mfh,32.87
2021-12-27T10:21:00,mfh,33.13
2021-12-27T10:22:00,mfh,32.72
2021-12-27T10:23:00,mfh,32.08
2021-12-27T10:24:00,mfh,32.19
2021-12-27T10:25:00,mfh,32.67
2021-12-27T10:26:00,mfh,32.71
2021-12-27T10:27:00,mfh,32.72
2021-12-27T10:28:00,mfh,32.91
2021-12-27T10:29:00,mfh,32.86
2021-12-27T10:30:00,mfh,32.70
2021-12-27T10:31:00,mfh,32.26
2021-12-27T10:32:00,mfh,31.89
2021-12-27T10:33:00,mfh,31.80
2021-12-27T10:34:00,mfh,31.74
2021-12-27T10:35:00,mfh,32.58
2021-12-27T10:36:00,mfh,32.52
2021-12-27T10:37:00,mfh,32.70
2021-12-27T10:38:00,mfh,32.78
2021-12-27T10:39:00,mfh,33.27
2021-12-27T10:40:00,mfh,31.86
2021-12-27T10:41:00,mfh,31.94
2021-12-27T10:42:00,mfh,31.89
2021-12-27T10:43:00,mfh,31.97
2021-12-27T10:44:00,mfh,32.64
2021-12-27T10:45:00,mfh,32.43
2021-12-27T10:46:00,mfh,32.78
2021-12-27T10:47:00,mfh,33.41
2021-12-27T10:48:00,mfh,32.04
2021-12-27T10:49:00,mfh,31.85
2021-12-27T10:50:00,mfh,32.01
2021-12-27T10:51:00,mfh,32.16
2021-12-27T10:52:00,mfh,32.80
2021-12-27T10:53:00,mfh,32.72
2021-12-27T10:54:00,mfh,33.26
2021-12-27T10:55:00,mfh,32.81
2021-12-27T10:56:00,mfh,32.22
2021-12-27T10:57:00,mfh,32.34
2021-12-27T10:58:00,mfh,32.26
2021-12-27T10:59:00,mfh,33.19
2021-12-27T11:00:00,mfh,33.37
2021-12-27T11:01:00,mfh,32.75
2021-12-27T11:02:00,mfh,32.64
2021-12-27T11:03:00,mfh,32.68
2021-12-27T11:04:00,mfh,33.99
2021-12-27T11:05:00,mfh,34.06
2021-12-27T11:06:00,mfh,34.55
2021-12-27T11:07:00,mfh,34.38
2021-12-27T11:08:00,mfh,35.14
2021-12-27T11:09:00,mfh,34.88
2021-12-27T11:10:00,mfh,34.94
2021-12-27T11:11:00,mfh,35.04
2021-12-27T11:12:00,mfh,34.14
2021-12-27T11:13:00,mfh,34.06
2021-12-27T11:14:00,mfh,34.57
2021-12-27T11:15:00,mfh,34.14
2021-12-27T11:16:00,mfh,34.85
2021-12-27T11:17:00,mfh,34.59
2021-12-27T11:18:00,mfh,34.43
2021-12-27T11:19:00,mfh,34.45
2021-12-27T11:20:00,mfh,34.41
2021-12-27T11:21:00,mfh,33.66
2021-12-27T11:22:00,mfh,33.61
2021-12-27T11:23:00,mfh,33.58
2021-12-27T11:24:00,mfh,34.98
2021-12-27T11:25:00,mfh,33.67
2021-12-27T11:26:00,mfh,31.64
2021-12-27T11:27:00,mfh,31.72
2021-12-27T11:28:00,mfh,31.63
2021-12-27T11:29:00,mfh,33.02
2021-12-27T11:30:00,mfh,32.27
2021-12-27T11:31:00,mfh,32.31
2021-12-27T11:32:00,mfh,33.30
2021-12-27T11:33:00,mfh,32.27
2021-12-27T11:34:00,mfh,31.80
2021-12-27T11:35:00,mfh,31.82
2021-12-27T11:36:00,mfh,31.87
2021-12-27T11:37:00,mfh,31.84
2021-12-27T11:38:00,mfh,33.88
2021-12-27T11:39:00,mfh,34.39
2021-12-27T11:40:00,mfh,34.54
2021-12-27T11:41:00,mfh,34.44
2021-12-27T11:42:00,mfh,33.75
2021-12-27T11:43:00,mfh,32.43
2021-12-27T11:44:00,mfh,32.29
2021-12-27T11:45:00,mfh,32.13
2021-12-27T11:46:00,mfh,32.38
2021-12-27T11:47:00,mfh,32.69
2021-12-27T11:48:00,mfh,32.71
2021-12-27T11:49:00,mfh,32.52
2021-12-27T11:50:00,mfh,31.91
2021-12-27T11:51:00,mfh,32.12
2021-12-27T11:52:00,mfh,32.04
2021-12-27T11:53:00,mfh,31.98
2021-12-27T11:54:00,mfh,33.38
2021-12-27T11:55:00,mfh,32.45
2021-12-27T11:56:00,mfh,32.60
2021-12-27T11:57:00,mfh,32.61
2021-12-27T11:58:00,mfh,32.01
2021-12-27T11:59:00,mfh,32.00
2021-12-27T12:00:00,mfh,32.24
2021-12-27T12:01:00,mfh,31.87
2021-12-27T12:02:00,mfh,32.58
2021-12-27T12:03:00,mfh,32.58
2021-12-27T12:04:00,mfh,32.54
2021-12-27T12:05:00,mfh,32.84
2021-12-27T12:06:00,mfh,32.75
2021-12-27T12:07:00,mfh,32.15
2021-12-27T12:08:00,mfh,32.03
2021-12-27T12:09:00,mfh,31.90
2021-12-27T12:10:00,mfh,33.01
2021-12-27T12:11:00,mfh,32.79
2021-12-27T12:12:00,mfh,32.90
2021-12-27T12:13:00,mfh,33.03
2021-12-27T12:14:00,mfh,33.34
2021-12-27T12:15:00,mfh,31.93
2021-12-27T12:16:00,mfh,32.04
2021-12-27T12:17:00,mfh,32.49
2021-12-27T12:18:00,mfh,33.22
2021-12-27T12:19:00,mfh,33.05
2021-12-27T12:20:00,mfh,33.46
2021-12-27T12:21:00,mfh,32.66
2021-12-27T12:22:00,mfh,34.71
2021-12-27T12:23:00,mfh,34.18
2021-12-27T12:24:00,mfh,34.55
2021-12-27T12:25:00,mfh,34.07
2021-12-27T12:26:00,mfh,34.43
2021-12-27T12:27:00,mfh,34.53
2021-12-27T12:28:00,mfh,34.95
2021-12-27T12:29:00,mfh,35.06
2021-12-27T12:30:00,mfh,34.63
2021-12-27T12:31:00,mfh,34.71
2021-12-27T12:32:00,mfh,34.36
2021-12-27T12:33:00,mfh,33.93
2021-12-27T12:34:00,mfh,35.06
2021-12-27T12:35:00,mfh,35.89
2021-12-27T12:36:00,mfh,36.81
2021-12-27T12:37:00,mfh,36.98
2021-12-27T12:38:00,mfh,37.11
2021-12-27T12:39:00,mfh,37.15
2021-12-27T12:40:00,mfh,37.11
2021-12-27T12:41:00,mfh,36.54
2021-12-27T12:42:00,mfh,36.50
2021-12-27T12:43:00,mfh,36.54
2021-12-27T12:44:00,mfh,37.33
2021-12-27T12:45:00,mfh,35.45
2021-12-27T12:46:00,mfh,35.42
2021-12-27T12:47:00,mfh,35.44
2021-12-27T12:48:00,mfh,32.42
2021-12-27T12:49:00,mfh,32.54
2021-12-27T12:50:00,mfh,32.22
2021-12-27T12:51:00,mfh,32.30
2021-12-27T12:52:00,mfh,32.83
2021-12-27T12:53:00,mfh,32.73
2021-12-27T12:54:00,mfh,32.80
2021-12-27T12:55:00,mfh,32.87
2021-12-27T12:56:00,mfh,32.06
2021-12-27T12:57:00,mfh,32.12
2021-12-27T12:58:00,mfh,32.14
2021-12-27T12:59:00,mfh,32.27
2021-12-27T13:00:00,mfh,32.34
2021-12-27T13:01:00,mfh,32.91
2021-12-27T13:02:00,mfh,32.85
2021-12-27T13:03:00,mfh,32.67
2021-12-27T13:04:00,mfh,32.65
2021-12-27T13:05:00,mfh,31.87
2021-12-27T13:06:00,mfh,31.89
2021-12-27T13:07:00,mfh,31.89
2021-12-27T13:08:00,mfh,32.14
2021-12-27T13:09:00,mfh,32.79
2021-12-27T13:10:00,mfh,32.77
2021-12-27T13:11:00,mfh,32.64
2021-12-27T13:12:00,mfh,32.69
2021-12-27T13:13:00,mfh,32.25
2021-12-27T13:14:00,mfh,32.25
2021-12-27T13:15:00,mfh,32.18
2021-12-27T13:16:00,mfh,32.31
2021-12-27T13:17:00,mfh,33.87
2021-12-27T13:18:00,mfh,44.85